CZ-6A R/B

基本信息
目录编号:
63605
目录名称:
CZ-6A R/B
国际标识:
2025-078G
轨道中心:
EARTH
物体状态:
在轨
发射日期:
2025-04-18 UTC
国别:
中国 (CN)
轨道信息
数据来源: 国际轨道数据
星历时间: 2026-09-05T09:50:58+0800
半长轴: 7289.959km
偏心率: 0.0106107
轨道倾角: 99.667°
近地点辐角: 197.742°
升交点赤经: 286.471°
平近点角: 162.002°
近地点: 834.47km
远地点: 989.174km
周期: 103.240分钟
每日圈数: 13.948105
详细信息
发射场:
TSC
轨道高度:
LEO
数据来源:
AOE Working Group
参考系:
TEME
时间系统:
UTC
历元类型:
SGP4
2D轨道图
3D轨道图
轨道高度分析图
轨道倾角分析图
轨道综合分析图
查看轨道综合分析图